ESAIL (46273 NORAD) Tracking and Keplerian Element Data

This shows tracking and keplerian element data for the satellite.

Feedback or suggestion? Click here.




ElementValue
Catalog46273
NameESAIL
Epoch Orbit330
Epoch Day268.93804018
Epoch Year2020
RAAN341.6459
Inclination97.4667
Eccentricity0.0007135
Argument of Perigee144.426
Mean Anonmoly215.7449
Mean Motion15.15166807
Decay Rate2E-06
L11 46273U 20061B 20268.93804018 .00000200 00000-0 14154-4 0 9993
L22 46273 97.4667 341.6459 0007135 144.4260 215.7449 15.15166807 3300

Live tracking and technical data element details for ESAIL (NORAD 46273). ESAIL can be tracked NOW for your location showing map with azimuth and elevation plus other details from your city location.

Track the satellite on the map from your city or location and see movement details for azimuth, elevation, latitude, longitude, range, height, and movement on the map or in text.







IsCatalogInMostPopularTable: catalog: 46273, numindb: 2
Update: records affected: 1



GetName: 46273 ESAIL

Hit Count: updated at: Mon, 28 Sep 2020 14:40:23 GMT